Showing default

TIANQI 29, 61195

Orbit data source: Space-Track

TIANQI 29, 61195 is a payload satellite owned by Guodian Gaokeji (CN) in LEO that was launched on Fri, 20 Sep 2024 UTC via a KUAIZHOU-1A launch vehicle from the Xichang Space Center, China (XSC). Payload-class satellites include a variety of spacecraft equipped with specific instruments for various scientific and technological missions. These include communications satellites like Starlink; space stations such as the ISS; scientific satellites like the Hubble; Earth observation satellites from companies like Planet Labs, Umbra, and HawkEye 360; GPS; miniature CubeSats for education and research; and military/defense satellites.

Loading next visibility...
Identifier
61195, 2024-170A
Orbit
LEO
Country
Flag of CNCN / PRC
Related business
Manufacturer
Shanghai ASES
Mission
Operational Commercial Communications
Bus & Motor
STARLIGHTB, Unknown motor
Mass
40 kg wet, ~40 kg dry
Launch date (UTC)
2024-09-20 (1 year ago)
Launch vehicle
KUAIZHOU-1A
Launch site
Xichang Space Center, China (XSC)
Object type
Payload
Rocket body
Debris
Shape & HBR
Box, 0.3 m
Radar Cross Section
0.195 m², Medium (>0.1 m² and < 1m²)

Expand to show TLE details & history
Last TLE update: 20 hours ago

TLE from 20 hours ago
0 TIANQI 29
1 61195U 24170A   25249.27252843  .00000231  00000-0  24618-3 0  9991
2 61195  44.8582 322.5591 0007650 195.9860 164.0730 13.98998888 49104
Epoch: 2025-09-06T06:32Z
TLE epoch observation values (Epoch: 2025-09-06T06:32:26.456Z)
Latitude
-0.00003°
Longitude
-121.15989°
Altitude
902.6 km
Speed
7.4 km/s
True Right ascension
21h 30m 14s
True Declination
0° 00' 00"
Sunlit
Object was in full shadow at epoch
Visualization orbit readout
Latitude
Unknown
Longitude
Unknown
Altitude
Unknown
Speed
Unknown
Apparent Right ascension
Unknown
Apparent Declination
Unknown
Sunlit
N/A
Visualization observer readout
Local Sidereal Time
18:25:08
Azimuth
Unknown
Elevation
Unknown
Doppler factor
Unknown
Orbital elements
Apogee altitude
904.371 km
Perigee altitude
893.238 km
Semi-major axis
7,276.941 km
Eccentricity
0.00077
Inclination
44.8582°
RAAN
322.5591°
Arg. of periapsis
195.986°
True anomaly
164.09703°
Mean anomaly
164.073°
Eccentric anomaly
164.08502°
Mean motion
3.49639 °/min
Orbital period
102.96 mins
BSTAR
0.00024618
Loading maneuver chart data...
Computing Atmospheric mass density...
Loading historical data...
Loading historical data...
Loading historical data...
Loading historical data...
Loading historical data...
Loading historical data...
Loading historical data...
Other satellites on launch #170 in the year 2024 (2024-09-20 UTC)

Documentation

Showing up to 5 results
|